SCP
0 0 0 0 0 0 0 0 0 0 0 0 0 0 0 0 0 0 0 0 0 0 0 0 0 0 0 0 0 0 0 0 0 0 0 0 0 0 0 0 0 0 0
0 0 0 0 0 0 0 0 0 0 0 0 0 0 0 0 0 0 0 0 0 0 0 0 0 0 0 0 0 0 0 0 0 0 0 0 0 0 0 0 0 0 0
0 0 0 0 0 0 0 0 0 0 0 0 0 0 0 0 0 0 0 0 0 0 0 0 0 0 0 0 0 0 0 0 0 0 0 0 0 0 0 0 0 0 0
0 0 0 0 0 0 0 0 0 0 0 0 0 0 0 0 0 0 0 0 0 0 0 0 0 0 0 0 0 0 0 0 0 0 0 0 0 0 0 0 0 0 0
0 0 0 0 0 0 0 0 0 0 0 0 0 0 0 0 0 0 0 0 0 0 0 0 0 0 0 0 0 0 0 0 0 0 0 0 0 0 0 0 0 0 0
0 0 0 0 0 0 0 0 0 0 0 0 0 0 0 0 0 0 0 0 0 0 0 0 0 0 0 0 0 0 0 0 0 0 0 0 0 0 0 0 0 0 0
0 0 0 0 0 0 0 0 0 0 0 0 0 0 0 0 0 0 0 0 0 0 0 0 0 0 0 0 0 0 0 0 0 0 0 0 0 0 0 0 0 0 0
0 0 0 0 0 0 0 0 0 0 0 0 0 0 0 0 0 0 0 0 0 0 0 0 0 0 0 0 0 0 0 0 0 0 0 0 0 0 0 0 0 0 0
0 0 0 0 0 0 0 0 0 0 0 0 0 0 0 0 0 0 0 0 0 0 0 0 0 0 0 0 0 0 0 0 0 0 0 0 0 0 0 0 0 0 0
0 0 0 0 0 0 0 0 0 0 0 0 0 0 0 0 0 0 0 0 0 0 0 0 0 0 0 0 0 0 0 0 0 0 0 0 0 0 0 0 0 0 0
0 0 0 0 0 0 0 0 0 0 0 0 0 0 0 0 0 0 0 0 0 0 0 0 0 0 0 0 0 0 0 0 0 0 0 0 0 0 0 0 0 0 0
0 0 0 0 0 0 0 0 0 0 0 0 0 0 0 0 0 0 0 0 0 0 0 0 0 0 0 0 0 0 0 0 0 0 0 0 0 0 0 0 0 0 0
0 0 0 0 0 0 0 0 0 0 0 0 0 0 0 0 0 0 0 0 0 0 0 0 0 0 0 0 0 0 0 0 0 0 0 0 0 0 0 0 0 0 0
0 0 0 0 0 0 0 0 0 0 0 0 0 0 0 0 0 0 0 0 0 0 0 0 0 0 0 0 0 0 0 0 0 0 0 0 0 0 0 0 0 0 0
0 0 0 0 0 0 0 0 0 0 0 0 0 0 0 0 0 0 0 0 0 0 0 0 0 0 0 0 0 0 0 0 0 0 0 0 0 0 0 0 0 0 0
0 0 0 0 0 0 0 0 0 0 0 0 0 0 0 0 0 0 0 0 0 0 0 0 0 0 0 0 0 0 0 0 0 0 0 0 0 0 0 0 0 0 0
0 0 0 0 0 0 0 0 0 0 0 0 0 0 0 0 0 0 0 0 0 0 0 0 0 0 0 0 0 0 0 0 0 0 0 0 0 0 0 0 0 0 0
-0 0 0 0 0 0 0 0 0 0 0 0 0 0 0 0 0 0 0 0 0 0 0 0 0 0 0 0 0 0 0 0 0 0 0 0 0 0 0 0 0 0 0
-0 -0 -0 0 0 0 0 0 0 0 0 0 0 0 0 0 0 0 0 0 0 0 0 0 0 0 0 0 0 0 0 0 0 0 0 0 0 0 0 0 0 0 0
-0 -0 -0 0 0 0 0 0 0 0 0 0 0 0 0 0 0 0 0 0 0 0 0 0 0 0 0 0 0 0 0 0 0 0 0 0 0 0 0 0 0 0 0
0 0 0 0 0 0 0 0 0 0 0 0 0 0 0 0 0 0 0 0 0 0 0 0 0 0 0 0 0 0 0 0 0 0 0 0 0 0 0 0 0 0 0
0 0 0 0 0 0 0 0 0 0 0 0 0 0 0 0 0 0 0 0 0 0 0 0 0 0 0 0 0 0 0 0 0 0 0 0 0 0 0 0 0 0 0
0 0 0 0 0 0 0 0 0 0 0 0 0 0 0 0 0 0 0 0 0 0 0 0 0 0 0 0 0 0 0 0 0 0 0 0 0 0 0 0 0 0 0
0 0 0 0 0 0 0 0 0 0 0 0 0 0 0 0 0 0 0 0 0 0 0 0 0 0 0 0 0 0 0 0 0 0 0 0 0 0 0 0 0 0 0
0 0 0 0 0 0 0 0 0 0 0 0 0 0 0 0 0 0 0 0 0 0 0 0 0 0 0 0 0 0 0 0 0 0 0 0 0 0 0 0 0 0 0
0 0 0 0 0 0 0 0 0 0 0 0 0 0 0 0 0 0 0 0 0 0 0 0 0 0 0 0 0 0 0 0 0 0 0 0 0 0 0 0 0 0 0
Wind_Speed
5 5 5 5 5 5 5 4 4 4 3 2 2 2 3 2 2 3 3 4 4 4 4 4 4 4 4 5 5 4 4 4 3 3 2 3 4 4 4 4 4 4 4
6 7 7 6 6 6 5 5 4 5 4 3 2 2 2 2 3 3 3 4 4 4 4 4 4 4 4 4 5 4 4 3 4 4 3 2 2 4 5 4 4 5 4
7 8 8 7 7 6 6 5 5 5 4 3 2 2 2 2 2 2 2 3 3 3 3 4 4 4 4 4 5 6 5 4 4 4 4 4 4 1 2 4 4 4 3
6 7 8 9 8 7 5 5 5 5 4 4 2 2 3 3 3 2 2 2 3 3 4 4 4 4 4 4 5 4 4 5 4 3 3 2 2 3 2 2 3 4 4
6 7 8 8 8 7 5 5 5 5 4 3 2 2 3 2 1 1 2 2 2 3 3 3 3 3 3 4 4 4 4 4 4 4 3 3 2 3 3 3 3 3 3
6 7 8 7 7 7 6 5 4 4 3 2 2 2 2 2 2 2 2 2 1 1 2 2 2 2 3 3 4 4 4 4 4 3 3 3 3 3 3 4 4 4 4
5 7 8 8 8 8 7 6 5 4 4 2 2 2 2 2 2 2 2 1 1 1 2 2 1 1 2 3 3 4 4 4 4 4 3 3 3 2 2 3 3 4 3
5 6 7 7 7 8 7 6 6 5 4 3 2 2 3 2 1 1 2 1 1 1 2 2 1 0 1 1 2 2 3 3 3 3 3 2 2 2 2 2 2 4 4
5 6 7 7 7 7 7 6 5 5 4 3 2 2 2 2 1 2 2 1 1 2 2 2 1 0 1 1 1 2 3 3 3 3 3 3 2 2 2 3 3 4 5
5 6 6 7 6 6 6 6 5 5 4 3 2 2 2 2 2 2 2 2 2 2 2 1 1 1 1 2 2 2 2 3 3 3 4 4 3 2 2 3 3 3 4
5 5 5 6 6 6 6 6 5 5 4 4 3 3 3 3 3 2 2 2 2 2 2 1 1 1 1 1 1 2 2 3 3 3 4 5 4 3 3 3 3 4 4
3 4 4 5 6 6 7 6 6 5 5 4 4 3 3 3 3 3 3 2 2 3 2 1 1 1 0 0 1 1 2 3 3 3 3 4 3 4 3 3 4 4 4
3 4 4 5 6 6 6 6 6 6 5 5 5 4 4 3 3 4 4 4 3 3 3 3 1 1 1 1 0 1 1 2 2 2 3 3 3 3 3 4 4 4 4
3 4 4 5 5 6 6 6 6 6 6 5 5 5 4 3 3 3 3 3 3 4 3 3 2 1 1 1 1 1 1 1 1 1 2 2 3 3 3 3 4 4 4
3 4 4 4 5 5 5 5 6 5 5 5 6 5 4 3 3 4 4 3 4 4 3 3 3 2 1 1 1 1 1 1 1 2 2 2 2 4 3 3 3 4 4
2 3 3 4 5 5 5 5 5 6 5 5 5 5 5 5 4 4 4 4 4 3 3 3 3 3 2 3 4 3 1 2 2 2 2 3 3 4 5 6 6 5 5
2 2 2 3 3 4 4 4 5 5 5 5 5 5 5 5 5 5 5 5 4 3 3 3 3 2 3 5 5 5 2 2 2 3 3 3 3 4 4 5 6 6 7
1 1 1 2 3 3 3 3 4 4 5 5 5 5 5 5 5 4 4 4 3 3 3 2 3 2 3 4 5 5 2 2 3 3 3 3 3 4 5 4 4 5 5
1 0 0 1 2 2 3 3 3 4 4 5 5 5 5 5 4 4 4 4 3 3 3 3 3 3 4 6 5 5 2 2 3 3 3 4 4 6 7 5 5 6 6
1 1 1 1 1 2 2 2 3 3 4 4 4 4 4 4 4 4 4 3 3 3 4 3 3 3 3 6 7 5 2 2 3 3 3 4 5 7 7 4 5 6 6
2 2 1 1 1 1 1 2 2 3 3 4 4 4 4 4 4 4 3 3 3 3 4 4 3 3 4 6 7 7 3 3 3 3 3 3 7 8 8 6 4 6 6
2 2 2 2 1 0 1 2 2 3 3 3 4 4 4 4 4 4 4 3 3 3 4 4 4 3 4 5 6 8 7 6 4 4 4 4 7 8 7 5 7 8 6
3 2 2 2 1 1 1 2 2 2 2 3 4 4 4 4 3 3 4 4 3 3 3 3 3 4 3 4 7 8 8 8 5 4 6 6 7 6 4 6 7 5 3
3 2 2 2 2 2 2 2 2 1 2 3 3 3 3 4 4 3 3 3 3 3 3 4 4 4 4 4 4 4 5 6 5 4 4 5 5 4 5 4 4 3 3
3 3 3 4 4 3 3 2 1 1 2 3 3 3 3 3 3 3 3 3 3 3 4 3 3 4 4 6 9 6 4 4 4 4 2 2 2 2 2 2 2 2 3
2 3 4 4 3 3 3 2 2 1 2 3 3 2 2 3 3 3 4 5 5 6 6 6 6 5 7 10 9 9 8 8 6 3 2 2 3 2 2 3 3 3 3
Wind_Direction
351 351 347 341 332 331 325 314 305 295 288 267 256 248 251 249 247 235 229 227 218 210 199 198 199 194 196 194 188 192 196 201 191 183 214 245 234 220 209 206 202 203 201
355 352 346 341 338 330 325 323 317 306 294 279 264 251 249 244 238 238 232 226 217 209 205 199 199 201 197 195 193 187 195 200 187 173 169 213 244 237 224 212 205 206 199
352 346 340 342 341 335 332 325 319 314 308 298 284 274 270 262 243 240 235 228 217 212 205 207 207 205 197 198 199 194 192 199 203 184 174 179 207 226 233 220 216 207 203
357 348 344 344 341 333 329 327 319 314 308 300 284 261 251 251 254 251 242 238 224 218 211 216 217 212 202 200 204 200 196 189 198 206 208 204 170 171 220 240 223 216 217
360 349 344 340 336 332 330 323 318 317 310 298 284 273 267 268 281 283 259 247 237 229 212 210 212 216 205 199 196 203 204 197 196 199 200 217 225 203 191 222 223 235 227
358 351 344 342 340 336 331 326 324 322 323 322 321 299 282 284 287 280 264 254 243 239 236 215 204 216 210 198 196 196 200 206 208 208 205 199 197 206 211 221 223 232 231
359 351 347 348 345 341 340 337 339 342 343 343 336 313 296 278 273 284 274 271 275 270 258 254 229 224 219 199 190 191 198 203 203 209 219 223 224 215 220 226 238 254 259
357 349 349 347 342 339 341 344 346 346 347 353 344 320 295 282 279 299 287 279 277 279 272 259 246 268 265 203 180 183 200 202 206 216 214 222 234 228 233 222 228 252 255
358 353 352 348 347 346 346 343 352 359 3 1 348 333 316 318 331 324 308 300 307 285 255 241 223 230 260 220 192 191 200 200 210 209 213 222 232 231 237 235 217 224 250
360 354 354 353 352 351 347 354 4 0 354 348 348 355 354 357 354 338 343 342 325 323 283 260 207 196 255 223 199 205 202 202 218 216 216 223 224 227 229 232 233 231 244
355 356 354 352 356 358 1 4 5 1 1 1 4 9 4 8 7 2 357 351 351 337 303 273 212 188 257 230 198 239 223 216 224 227 224 229 224 221 225 230 229 235 241
356 355 355 358 1 3 3 4 4 5 5 6 8 13 15 19 18 6 355 0 355 339 343 333 25 24 353 118 176 251 247 233 229 231 230 238 238 229 231 231 235 238 243
357 358 360 3 3 2 3 3 8 9 10 17 16 20 17 15 14 7 359 3 2 6 7 0 23 20 68 66 345 268 269 264 247 241 241 246 237 234 237 238 236 240 257
0 2 359 360 1 1 1 0 4 8 8 14 17 19 15 14 15 12 11 5 8 19 11 1 6 358 75 80 334 308 284 283 298 278 253 254 248 242 245 250 245 244 246
356 358 355 354 356 356 356 360 1 4 8 14 14 10 11 13 17 18 14 6 11 11 7 3 7 4 23 38 353 317 315 283 285 291 280 275 283 281 272 270 263 256 250
331 347 353 352 350 350 353 357 359 359 8 16 10 2 8 13 16 13 10 10 6 2 7 9 4 358 2 10 5 356 317 291 276 278 282 281 273 285 290 286 283 277 261
301 325 343 341 341 347 353 356 357 358 6 11 4 360 5 10 11 10 13 8 0 2 6 360 358 347 354 3 358 347 310 274 267 267 271 283 294 302 273 285 295 284 280
266 297 339 336 341 350 355 358 1 3 4 3 359 357 1 4 5 8 8 358 354 355 352 351 349 340 345 355 350 343 301 274 271 267 266 271 278 285 299 292 284 276 274
174 157 347 337 340 346 350 353 356 359 2 356 351 351 354 355 354 356 352 348 349 348 345 343 347 347 345 358 351 346 287 274 272 272 275 274 268 295 308 295 281 280 281
144 145 119 26 333 326 339 345 344 352 349 343 341 342 344 344 342 341 336 337 342 340 338 342 345 343 341 350 353 348 303 299 295 286 278 287 296 305 310 288 280 281 284
179 161 162 211 263 304 316 320 330 335 330 333 335 336 338 338 338 336 330 332 337 339 341 343 343 346 349 349 350 348 326 306 297 292 287 288 309 309 308 303 281 291 301
199 187 199 229 239 235 269 294 307 316 328 329 328 327 330 333 337 331 328 330 337 344 343 344 343 343 341 343 341 342 337 327 298 289 286 291 308 310 311 305 308 314 312
208 203 213 233 238 227 235 267 282 312 322 317 313 314 323 325 323 325 327 329 338 342 336 333 331 328 329 329 336 334 331 329 314 297 308 311 317 314 303 310 321 319 299
210 206 208 229 243 242 247 256 275 282 298 300 302 311 319 320 321 323 321 322 328 334 330 325 321 318 318 322 327 324 318 320 318 307 309 319 316 308 308 309 304 293 293
217 202 214 230 238 235 239 247 257 278 283 288 295 302 304 306 309 314 313 314 306 310 312 306 304 308 309 315 322 324 316 312 310 319 311 312 307 295 293 293 291 295 305
229 223 227 235 240 234 239 236 228 250 270 280 289 292 293 297 301 308 317 316 306 311 313 312 311 304 311 321 322 321 322 321 325 330 315 313 310 300 303 309 311 311 313